Location: Cranbrook Institute of Science
(42.5830°N, 83.2450°W)
Time: 17:54:25
(UTC-04:00)

Daily predictions for brighter satellites

Satellite Brightness Start Highest point End
(mag) Time Altitude Azimuth Time Altitude Azimuth Time Altitude Azimuth
ATLAS CENTAUR R/B 4.1 21:24:28 10° SSW 21:30:27 68° ESE 21:48:43 10° NE
ERS-1 Rocket 4.5 21:28:45 10° ESE 21:32:30 22° ENE 21:36:15 10° NNE
Cosmos 1743 2.8 21:29:49 10° N 21:33:37 59° E 21:37:23 10° SSE
ATLAS CENTAUR R/B 3.8 21:32:12 10° WNW 21:35:46 22° WSW 21:39:27 10° SSW
CENTAUR R/B 2.9 21:32:04 10° S 21:37:31 41° ESE 21:43:41 10° NE
Iridium 2 4.3 21:35:01 10° SSE 21:38:34 37° E 21:42:08 10° NNE
ELECTRON R/B 4.3 21:36:15 10° N 21:38:41 64° E 21:41:10 10° SSE
SJ 16-02 3.2 21:36:49 10° NNE 21:39:49 17° ENE 21:42:46 10° E
Cosmos 2333 Rocket 4.4 21:37:57 10° NNE 21:39:57 12° NE 21:41:58 10° ENE
Cosmos 1898 Rocket 3.6 21:35:24 10° NNW 21:40:45 88° ENE 21:46:05 10° SSE
Meteor 1-12 Rocket 4.4 21:35:37 10° N 21:41:36 80° E 21:47:37 10° SSE
CZ-4C R/B 4.2 21:36:31 10° NNW 21:42:22 28° NE 21:48:50 10° E
Cosmos 2233 Rocket 4.0 21:38:38 10° S 21:44:47 82° E 21:51:01 10° N
Cosmos 1814 Rocket 4.2 21:39:44 10° S 21:44:50 55° ESE 21:50:02 10° NNE
Okean 1 4.5 21:46:50 10° SSW 21:50:45 47° WNW 21:54:42 10° N
Resurs 01 Rocket 2.3 21:47:33 10° S 21:51:51 54° W 21:56:11 10° NNW
ATLAS 3B R/B 3.9 21:45:51 10° WSW 21:52:43 48° NW 21:59:22 10° NNE
H-2A R/B 2.7 21:48:25 10° SE 21:52:59 39° ENE 21:57:40 10° N
Cosmos 990 Rocket 4.0 21:48:09 10° NNW 21:53:24 82° ENE 21:58:38 10° SSE
Meteor 2-4 Rocket 3.9 21:49:12 10° S 21:54:27 53° E 21:59:53 10° NNE
SL-08 RB Rocket 4.4 21:52:37 11° SE 21:56:37 39° ENE 22:00:52 10° N
Lacrosse 5 rocket 2.3 21:54:35 10° NW 21:58:46 41° NE 22:02:25 12° ESE
Aureole 2 Rocket 2.5 21:56:00 10° N 21:58:48 41° ENE 22:00:42 16° SE
ARGOS 3.3 21:56:29 10° SSE 22:01:47 61° ENE 22:07:07 10° N
Cosmos 2322 Rocket 2.4 22:00:49 10° NNW 22:06:24 69° WSW 22:11:57 10° SSE
Cosmos 2322 4.4 22:01:08 10° NNW 22:06:33 41° ENE 22:10:59 15° ESE
Cosmos 1242 Rocket 3.6 22:07:18 10° NNW 22:10:49 45° W 22:14:15 10° SSW
SL-16 R/B 2.8 22:11:01 10° NNW 22:16:33 54° WSW 22:22:01 10° S
Cosmos 2150 Rocket 4.1 22:16:05 10° NNW 22:21:29 81° WSW 22:25:55 15° SSE
CSL-04 DEB 4.5 22:19:57 18° SSE 22:22:59 67° ENE 22:27:03 10° N
Cosmos 1340 Rocket 2.8 22:19:08 10° S 22:23:11 83° E 22:27:17 10° NNE
BREEZE-M R/B 4.1 22:23:11 10° W 22:26:42 32° NNW 22:29:07 10° NE
MetOp-B 4.1 22:23:56 15° SSE 22:28:29 88° ENE 22:33:53 10° NNW
Cosmos 540 Rocket 3.5 22:23:54 10° S 22:28:57 59° ESE 22:34:03 10° NNE
Cosmos 1025 Rocket 4.1 22:27:28 21° SE 22:29:09 27° E 22:32:51 10° NNE
Cosmos 1513 Rocket 4.4 22:23:53 10° S 22:29:55 71° E 22:36:06 10° NNE
Cosmos 2034 Rocket 4.0 22:29:18 13° S 22:34:48 62° E 22:40:53 10° NNE
Cosmos 2219 4.3 22:34:42 21° SE 22:36:44 26° ESE 22:41:23 10° NE
Cosmos 2237 4.3 22:31:42 10° NNW 22:37:26 69° ENE 22:41:04 23° SE
Cosmos 1464 Rocket 4.0 22:31:14 10° S 22:37:37 89° E 22:44:01 10° N
SPOT 5 3.0 22:37:55 25° SE 22:40:17 52° ENE 22:44:46 10° N
USA 245 3.3 22:38:31 27° SSE 22:40:28 79° ENE 22:45:00 10° N
Terra 3.0 22:38:20 19° ESE 22:40:35 28° ENE 22:44:37 10° N
Cosmos 1455 Rocket 3.6 22:36:29 10° NNW 22:40:46 58° W 22:44:20 15° S
Cosmos 841 Rocket 4.2 22:41:22 10° SW 22:46:32 57° WNW 22:51:44 10° NNE
Meteor 1-15 Rocket 4.2 22:43:09 10° N 22:48:54 85° E 22:52:34 23° SSE
Abrixas rocket 4.1 22:48:45 10° WNW 22:51:40 31° N 22:54:36 10° NE
Helios 1A 2.9 22:51:28 31° SSE 22:53:22 77° ENE 22:57:33 10° N
DELTA 2 R/B (1) 4.4 22:48:46 10° SSW 22:53:20 27° SSE 22:53:20 27° SSE
Okean 2 3.4 22:52:12 30° SSE 22:54:08 64° E 22:58:17 10° NNE
CZ-2C R/B 4.1 22:50:54 10° NE 22:55:06 21° E 22:56:06 20° ESE
Cosmos 2360 Rocket 2.5 22:49:53 10° NNW 22:55:28 63° WSW 22:58:58 23° S
Cosmos 372 Rocket 3.9 22:50:46 10° NNW 22:55:55 81° ENE 22:58:30 30° SSE
BREEZE M DEB (TANK) 3.3 22:49:05 10° WNW 22:57:11 43° SW 22:58:38 29° S
USA 234 3.6 22:51:22 10° NE 22:57:53 69° NW 23:04:24 10° WSW
ISS -0.9 22:56:23 10° NW 22:58:40 17° N 23:00:57 10° NE
Cosmos 2219 Rocket 2.9 22:53:34 10° NNW 22:58:52 42° ENE 23:01:38 25° ESE
Tiangong 2 1.0 22:56:24 10° W 22:59:34 88° N 23:00:16 51° E
Cosmos 2333 4.3 22:54:43 10° NNW 23:00:22 65° ENE 23:03:12 30° SE
Shenzhou-11 Module 3.4 22:58:59 10° W 23:01:05 26° SW 23:01:05 26° SW
Cosmos 1356 Rocket 3.4 23:05:19 35° S 23:07:03 73° E 23:11:22 10° NNE
COSMOS 2455 4.2 23:10:58 21° ESE 23:10:58 21° ESE 23:15:12 10° ENE
ERS-1 Rocket 3.7 23:07:42 20° SSW 23:10:56 48° W 23:15:49 10° NNW
Helios 1B rocket 2.3 23:13:36 10° NNE 23:17:46 87° ESE 23:19:16 39° SSW
CZ-2C R/B 3.6 23:16:09 33° SE 23:18:16 51° ENE 23:23:44 10° N
SJ 16-02 2.0 23:14:24 10° NNW 23:18:41 49° WSW 23:20:27 31° SSW
Cosmos 2228 4.0 23:21:21 10° NNE 23:25:14 32° ENE 23:25:44 31° E
Cosmos 2333 Rocket 2.4 23:19:48 10° NNW 23:25:28 60° ENE 23:27:41 36° SE
SL-16 R/B 4.3 23:23:42 10° N 23:27:25 17° NE 23:30:55 11° E
CENTAUR R/B 3.8 23:22:19 10° WSW 23:28:07 42° NW 23:34:47 10° NNE
Okean 1-7 Rocket 3.6 23:27:08 49° SSE 23:28:13 68° E 23:32:45 10° NNE
COSMOS 2428 2.7 23:22:45 10° NNW 23:28:27 83° WSW 23:30:38 39° SSE
SPOT 1/Viking Rocket 4.0 23:26:20 29° SSW 23:28:47 56° W 23:33:52 10° NNW
IGS 5A 3.4 23:28:32 53° S 23:29:29 83° WSW 23:33:40 10° NNW
Meteor 1-29 2.9 23:27:28 10° N 23:30:58 82° WNW 23:31:16 71° SW
CZ-4C R/B 2.9 23:24:32 10° NW 23:31:49 90° SW 23:35:47 34° SSE
H-2A R/B 3.7 23:29:02 12° SW 23:32:31 25° W 23:36:38 10° NW
Cosmos 1726 Rocket 3.8 23:28:56 10° N 23:33:15 52° E 23:33:54 47° ESE
Cosmos 1125 Rocket 4.1 23:30:59 10° NNW 23:36:02 49° WSW 23:38:03 32° SSW
Cosmos 783 Rocket 4.4 23:33:59 32° SSW 23:36:28 88° ESE 23:41:49 10° NNE
Cosmos 1980 4.3 23:31:45 10° NNW 23:37:11 45° ENE 23:39:12 33° ESE
Lacrosse 5 rocket 2.5 23:34:09 10° WNW 23:37:51 29° SW 23:38:05 29° SW
Cosmos 1092 Rocket 4.1 23:36:40 10° NNW 23:43:00 73° W 23:45:54 34° S
Cosmos 2297 Rocket 2.9 23:44:24 34° ESE 23:44:34 34° ESE 23:49:37 10° NE
Cosmos 1953 4.2 23:44:56 10° NNE 23:47:46 19° ENE 23:47:46 19° ENE
Cosmos 2227 Rocket 2.6 23:47:43 40° ESE 23:48:09 41° ESE 23:53:26 10° NE
Cosmos 2058 Rocket 3.3 23:45:55 10° N 23:50:23 56° E 23:50:47 54° ESE
Cosmos 1174 4.4 23:52:20 10° NNW 23:54:42 38° NNE 23:54:42 38° NNE
